Regional Weather Roundup
Issued by NWS Sioux Falls, SD

Home | Current Version | Previous Version | Text Only | Print | Product List | Glossary On
Versions: 1 2 3 4 5 6 7 8 9 10 11 12 13 14 15 16 17 18 19 20 21 22 23 24 25 26 27 28 29 30 31 32 33 34 35 36 37 38 39 40 41 42 43 44 45 46 47 48 49 50
000
ASUS43 KFSD 290510
RWRFSD

WEATHER ROUNDUP FOR SE SOUTH DAKOTA/SW MINNESOTA/NW IOWA
NATIONAL WEATHER SERVICE SIOUX FALLS SD
1200 AM CDT SUN MAY 29 2016

NOTE: "FAIR" INDICATES FEW OR NO CLOUDS BELOW 12,000 FEET WITH NO
SIGNIFICANT WEATHER AND OR OBSTRUCTIONS TO VISIBILITY.


SDZ038>040-050-052>070-290600-
SOUTHEAST SOUTH DAKOTA

CITY           SKY/WX    TMP DP  RH WIND       PRES   REMARKS
BROOKINGS      CLOUDY    58  57  97 W8        29.92R
CHAMBERLAIN    CLOUDY    63  62  97 CALM      29.96S
HURON          PTCLDY    59  58  96 SW6       29.92R
MADISON        FAIR      57  57 100 W9        29.94S
MITCHELL       CLEAR     61  59  93 SW7       29.95R
SIOUX FALLS    CLOUDY    59  57  93 W5        29.94R
WINNER         FAIR      61  55  81 S5        29.97F
YANKTON        CLOUDY    57  55  94 W8        29.96R
$$

MNZ071-072-080-081-089-090-097-098-290600-
SOUTHWEST MINNESOTA

CITY           SKY/WX    TMP DP  RH WIND       PRES   REMARKS
FAIRMONT       MOCLDY    61  54  77 NW7       29.87R
JACKSON        CLOUDY    61  55  82 W8        29.90R
LUVERNE        MOCLDY    59  55  88 W9        29.93R
MARSHALL       MOCLDY    61  58  90 W6        29.89R
MONTEVIDEO     CLOUDY    61  61 100 W3        29.89R
PIPESTONE      CLOUDY    61  57  88 W7        29.92R
REDWOOD FALLS  CLOUDY    62  59  90 W7        29.86R
TRACY          PTCLDY    61  58  91 W5        29.89S
WINDOM         MOCLDY    61  57  88 CALM      29.89R
WORTHINGTON    PTCLDY    59  57  93 W8        29.92R
$$

IAZ001>003-012>014-020>022-031-032-NEZ013-014-SDZ071-290600-
NORTHWEST IOWA

CITY           SKY/WX    TMP DP  RH WIND       PRES   REMARKS
CHEROKEE       PTCLDY    60  60 100 W3        29.93R
DENISON        CLOUDY    63  59  88 W10       29.93R
ESTHERVILLE    CLOUDY    61  60  97 W8        29.88R
LE MARS        MOCLDY    61  59  94 W8        29.95R
ORANGE CITY    CLOUDY    61  61 100 W8        29.94R
SHELDON        MOCLDY    61  61 100 W9        29.92R
SIOUX CITY     PTCLDY    61  57  87 W5        29.96R
SPENCER        CLOUDY    62  59  90 W9        29.91R
STORM LAKE     DRIZZLE   61  61 100 W12       29.93R
$$

ABBREVIATIONS USED IN REMARKS
   TC - TEMPERATURE IN CELSIUS
  WCI - WIND CHILL INDEX
   HX - HEAT INDEX
  VSB - VISIBILITY





USA.gov is the U.S. government's official web portal to all federal, state and local government web resources and services.